FW3877 Weather Reports


Display with metric or nautical units.
time (UTC)temp
F
wind
direction
speed
MPH
gust
MPH
rain 1hr
in
rain 24hr
in
rain mn
in
humidity
%
barometer
mb
20221206142205 42 21 2.0 5.0 0.00 0.00 0.00 84 1030.2
20221206141704 42 52 4.0 7.0 0.00 0.00 0.00 83 1030.2
20221206141204 42 58 6.0 9.0 0.00 0.00 0.00 82 1030.3
20221206140704 42 51 3.0 6.0 0.00 0.00 0.00 81 1030.4
20221206140203 43 26 3.0 7.0 0.00 0.00 0.00 80 1030.3
20221206135706 43 38 4.0 7.0 0.00 0.00 0.00 80 1030.3
20221206135204 43 26 2.0 5.0 0.00 0.00 0.00 80 1030.3
20221206134704 43 356 4.0 8.0 0.00 0.00 0.00 80 1030.3
20221206134205 43 37 3.0 5.0 0.00 0.00 0.00 81 1030.3
20221206133704 43 41 3.0 5.0 0.00 0.00 0.00 81 1030.4
20221206133203 43 24 3.0 5.0 0.00 0.00 0.00 81 1030.3
20221206132704 42 32 3.0 3.0 0.00 0.00 0.00 81 1030.3
20221206132204 42 346 2.0 3.0 0.00 0.00 0.00 81 1030.3
20221206131704 42 15 1.0 2.0 0.00 0.00 0.00 81 1030.3
20221206131204 42 25 2.0 3.0 0.00 0.00 0.00 82 1030.4
20221206130704 42 54 1.0 3.0 0.00 0.00 0.00 83 1030.4
20221206130205 42 17 1.0 2.0 0.00 0.00 0.00 83 1030.4
20221206125704 41 47 2.0 3.0 0.00 0.00 0.00 83 1030.5
20221206125204 41 1 1.0 2.0 0.00 0.00 0.00 84 1030.5
20221206124705 41 344 1.0 2.0 0.00 0.00 0.00 84 1030.6
20221206124204 41 329 1.0 2.0 0.00 0.00 0.00 84 1030.7
20221206123704 41 13 1.0 1.0 0.00 0.00 0.00 83 1030.7
20221206123204 41 13 1.0 3.0 0.00 0.00 0.00 83 1030.7
20221206122704 41 336 2.0 3.0 0.00 0.00 0.00 83 1030.8
20221206122204 41 0 1.0 2.0 0.00 0.00 0.00 84 1030.7
20221206121703 41 354 1.0 3.0 0.00 0.00 0.00 84 1030.8
20221206121203 41 357 1.0 3.0 0.00 0.00 0.00 86 1030.8
20221206120704 40 344 2.0 3.0 0.00 0.00 0.00 86 1030.8
20221206120205 40 340 1.0 2.0 0.00 0.00 0.00 87 1030.8
20221206115204 40 338 0.0 0.0 0.00 0.00 0.00 86 1030.9
20221206114706 40 338 0.0 1.0 0.00 0.00 0.00 86 1030.9
20221206114203 40 338 0.0 0.0 0.00 0.00 0.00 86 1030.9
20221206113704 40 338 0.0 2.0 0.00 0.00 0.00 86 1031.1
20221206113204 40 335 1.0 2.0 0.00 0.00 0.00 86 1031.1
20221206112705 40 348 2.0 2.0 0.00 0.00 0.00 86 1031.1
20221206111204 39 5 1.0 2.0 0.00 0.00 0.00 87 1031.0
20221206110704 39 32 0.0 1.0 0.00 0.00 0.00 87 1031.0
20221206105704 38 34 0.0 0.0 0.00 0.00 0.00 87 1030.9
20221206104705 38 34 0.0 1.0 0.00 0.00 0.00 88 1030.9
20221206104204 38 34 0.0 1.0 0.00 0.00 0.00 88 1030.9
20221206103704 37 34 0.0 1.0 0.00 0.00 0.00 88 1031.0
20221206103204 37 34 0.0 1.0 0.00 0.00 0.00 88 1031.0
20221206102704 37 34 0.0 1.0 0.00 0.00 0.00 88 1030.9
20221206102204 36 34 0.0 1.0 0.00 0.00 0.00 89 1031.0
20221206101704 36 34 1.0 2.0 0.00 0.00 0.00 89 1031.0
20221206101204 36 23 1.0 2.0 0.00 0.00 0.00 89 1031.0
20221206100704 35 11 1.0 2.0 0.00 0.00 0.00 89 1030.9
20221206100204 35 52 0.0 1.0 0.00 0.00 0.00 89 1030.8
20221206095203 35 52 0.0 1.0 0.00 0.00 0.00 89 1030.9
20221206094703 34 52 1.0 1.0 0.00 0.00 0.00 89 1030.9
20221206093702 34 52 1.0 1.0 0.00 0.00 0.00 90 1030.9
20221206093203 33 52 0.0 1.0 0.00 0.00 0.00 90 1030.9
20221206092203 32 52 1.0 1.0 0.00 0.00 0.00 90 1030.7
20221206091703 32 52 1.0 1.0 0.00 0.00 0.00 90 1030.7
20221206091202 32 52 1.0 1.0 0.00 0.00 0.00 90 1030.8
20221206090702 31 52 1.0 2.0 0.00 0.00 0.00 90 1030.7
20221206090204 31 53 2.0 3.0 0.00 0.00 0.00 90 1030.7
20221206085703 31 70 2.0 2.0 0.00 0.00 0.00 90 1030.8
20221206085203 31 56 2.0 3.0 0.00 0.00 0.00 89 1030.9
20221206084703 31 53 2.0 3.0 0.00 0.00 0.00 89 1030.8
20221206084204 32 70 2.0 8.0 0.00 0.00 0.00 89 1030.9
20221206004705 38 48 3.0 3.0 0.00 0.00 0.00 90 1031.2
20221206004204 38 49 3.0 7.0 0.00 0.00 0.00 91 1031.1
20221206003704 38 45 3.0 5.0 0.00 0.00 0.00 91 1031.1
20221206002703 37 33 4.0 9.0 0.00 0.00 0.00 91 1031.2
20221206002203 37 52 4.0 7.0 0.00 0.00 0.00 90 1031.1
20221206001704 37 54 5.0 7.0 0.00 0.00 0.00 90 1031.0
20221206001204 38 48 5.0 6.0 0.00 0.00 0.00 90 1031.0
20221205235203 39 58 5.0 8.0 0.00 0.00 0.00 90 1031.0
20221205234704 39 54 7.0 12.0 0.00 0.00 0.00 91 1031.0
20221205234204 39 53 6.0 8.0 0.00 0.00 0.00 91 1031.0
20221205233703 39 61 6.0 10.0 0.00 0.00 0.00 91 1031.1
20221205233204 39 46 4.0 6.0 0.00 0.00 0.00 91 1031.1
20221205232703 39 30 3.0 6.0 0.00 0.00 0.00 91 1031.0
20221205231703 39 345 2.0 3.0 0.00 0.00 0.00 91 1031.1
20221205231203 38 31 1.0 5.0 0.00 0.00 0.00 91 1031.1
20221205230703 38 33 2.0 6.0 0.00 0.00 0.00 91 1031.0
20221205230205 39 52 3.0 5.0 0.00 0.00 0.00 91 1031.0
20221205225703 39 46 4.0 7.0 0.00 0.00 0.00 90 1031.0
20221205225203 39 39 3.0 9.0 0.00 0.00 0.00 90 1031.1
20221205224704 39 44 5.0 7.0 0.00 0.00 0.00 90 1031.1
20221205224203 39 47 5.0 8.0 0.00 0.00 0.00 91 1031.1
20221205223703 39 47 6.0 8.0 0.00 0.00 0.00 90 1031.1
20221205223204 39 37 6.0 10.0 0.00 0.00 0.00 91 1031.1
20221205222703 39 44 6.0 9.0 0.00 0.00 0.00 91 1031.1
20221205222203 39 28 7.0 10.0 0.00 0.00 0.00 91 1031.1
20221205221705 39 45 6.0 10.0 0.00 0.00 0.00 91 1031.0
20221205221203 39 48 7.0 12.0 0.00 0.00 0.00 91 1031.1
20221205220704 39 51 6.0 9.0 0.00 0.00 0.00 91 1031.0
20221205220203 39 48 5.0 9.0 0.00 0.00 0.00 91 1031.0
20221205215703 38 35 4.0 7.0 0.00 0.00 0.00 90 1031.0
20221205215204 38 37 3.0 6.0 0.00 0.00 0.00 90 1031.0
20221205214703 38 44 3.0 5.0 0.00 0.00 0.00 90 1031.1
20221205213703 38 33 2.0 3.0 0.00 0.00 0.00 90 1030.9
20221205213206 39 43 2.0 3.0 0.00 0.00 0.00 90 1031.0
20221205212703 39 53 2.0 5.0 0.00 0.00 0.00 90 1030.9
20221205211703 39 33 3.0 5.0 0.00 0.00 0.00 89 1030.9
20221205211204 39 16 2.0 5.0 0.00 0.00 0.00 89 1030.9
20221205210703 39 343 3.0 3.0 0.00 0.00 0.00 89 1030.8
20221205205703 39 11 3.0 7.0 0.00 0.00 0.00 89 1030.9
20221205205204 39 36 4.0 8.0 0.00 0.00 0.00 89 1030.8
20221205204704 39 50 3.0 7.0 0.00 0.00 0.00 89 1030.9
20221205203704 39 59 3.0 5.0 0.00 0.00 0.00 89 1030.9
20221205203204 39 50 3.0 3.0 0.00 0.00 0.00 89 1031.0
20221205202203 39 46 2.0 3.0 0.00 0.00 0.00 89 1030.9
20221205201704 39 26 2.0 6.0 0.00 0.00 0.00 88 1030.9
20221205201204 39 38 5.0 7.0 0.00 0.00 0.00 89 1030.9
20221205200704 39 34 3.0 6.0 0.00 0.00 0.00 88 1030.9
20221205200204 39 41 3.0 5.0 0.00 0.00 0.00 88 1030.8
20221205195704 40 35 2.0 6.0 0.00 0.00 0.00 87 1030.8
20221205195203 40 26 3.0 7.0 0.00 0.00 0.00 87 1030.8
20221205194703 40 40 2.0 9.0 0.00 0.00 0.00 87 1030.7
20221205194204 40 25 3.0 6.0 0.00 0.00 0.00 88 1030.6
20221205193203 40 49 7.0 12.0 0.00 0.00 0.00 88 1030.5
20221205192703 40 40 5.0 10.0 0.00 0.00 0.00 88 1030.4
20221205191703 40 55 6.0 10.0 0.00 0.00 0.00 88 1030.4
20221205191204 39 51 7.0 12.0 0.00 0.00 0.00 89 1030.4
20221205190703 39 47 5.0 12.0 0.00 0.00 0.00 89 1030.4
20221205185703 38 52 4.0 7.0 0.00 0.00 0.00 89 1030.5
20221205185206 38 46 3.0 6.0 0.00 0.00 0.00 89 1030.4
20221205184703 38 25 3.0 8.0 0.00 0.00 0.00 89 1030.5
20221205184203 38 31 3.0 6.0 0.00 0.00 0.00 89 1030.4
20221205183703 38 37 3.0 6.0 0.00 0.00 0.00 89 1030.4
20221205183203 38 44 3.0 6.0 0.00 0.00 0.00 89 1030.3
20221205182703 38 25 3.0 7.0 0.00 0.00 0.00 89 1030.4
20221205182204 38 42 5.0 6.0 0.00 0.00 0.00 89 1030.4
20221205181703 38 57 3.0 7.0 0.00 0.00 0.00 89 1030.3
20221205181203 38 44 3.0 5.0 0.00 0.00 0.00 88 1030.4
20221205180704 38 51 3.0 6.0 0.00 0.00 0.00 88 1030.3
20221205180204 39 51 4.0 6.0 0.00 0.00 0.00 89 1030.2
20221205175703 39 49 4.0 6.0 0.00 0.00 0.00 88 1030.2
20221205174203 39 50 5.0 9.0 0.00 0.00 0.00 88 1030.0
20221205173703 39 49 6.0 9.0 0.00 0.00 0.00 88 1030.2
20221205173203 39 59 6.0 8.0 0.00 0.00 0.00 88 1030.1
20221205172703 40 48 5.0 9.0 0.00 0.00 0.00 88 1030.0
20221205172206 39 40 6.0 10.0 0.00 0.00 0.00 88 1029.9
20221205171704 39 45 7.0 12.0 0.00 0.00 0.00 88 1029.7
20221205171204 39 40 4.0 8.0 0.00 0.00 0.00 88 1029.8
20221205170203 40 47 5.0 8.0 0.00 0.00 0.00 87 1029.8
20221205165703 40 52 5.0 9.0 0.00 0.00 0.00 88 1029.7
20221205165203 39 55 5.0 9.0 0.00 0.00 0.00 88 1029.7
20221205164704 39 34 5.0 8.0 0.00 0.00 0.00 88 1029.7
20221205164204 39 47 5.0 10.0 0.00 0.00 0.00 88 1029.6
20221205163703 39 25 5.0 7.0 0.00 0.00 0.00 88 1029.7
20221205163203 40 30 5.0 8.0 0.00 0.00 0.00 88 1029.7
20221205162703 40 23 3.0 5.0 0.00 0.00 0.00 88 1029.6
20221205162203 40 28 2.0 6.0 0.00 0.00 0.00 87 1029.6
20221205161703 40 27 3.0 6.0 0.00 0.00 0.00 87 1029.5
20221205161205 40 24 5.0 8.0 0.00 0.00 0.00 87 1029.5
20221205160204 41 53 5.0 8.0 0.00 0.00 0.00 87 1029.4
20221205154203 42 43 5.0 8.0 0.00 0.00 0.00 86 1029.1
20221205153703 42 57 6.0 13.0 0.00 0.00 0.00 85 1029.2
20221205152703 43 56 7.0 12.0 0.00 0.00 0.00 85 1028.9
20221205152205 43 61 6.0 12.0 0.00 0.00 0.00 84 1029.0
20221205151703 43 44 7.0 12.0 0.00 0.00 0.00 84 1029.0
20221205151204 43 51 8.0 12.0 0.00 0.00 0.00 84 1029.0
20221205145703 44 61 7.0 12.0 0.00 0.00 0.00 84 1029.0
20221205143703 44 45 6.0 9.0 0.00 0.00 0.00 85 1029.0
20221205143204 43 36 5.0 9.0 0.00 0.00 0.00 85 1029.0
20221205142703 43 42 5.0 8.0 0.00 0.00 0.00 85 1029.0